• Em Portugal
  • Lista de países
  • Para 7 dias
  • Temperatura da água
  • Mapas de satélite
  • Mapa do tempo
  • Widgets de tempo
  • user-avatar
    Iniciar Sessão

    Previsão horária em Silkhet

    Hoje, 24 Novembro, Sexta-feira

    Tempo Temperatura Precipitação Vento Pressão Humidade
    00:00 +22°C° 0 mm 1 m/s 758 mmHg 72%
    01:00 +21°C° 0 mm 1 m/s 758 mmHg 73%
    02:00 +21°C° 0 mm 1 m/s 758 mmHg 74%
    03:00 +21°C° 0 mm 1 m/s 757 mmHg 75%
    04:00 +20°C° 0 mm 1 m/s 758 mmHg 76%
    05:00 +20°C° 0 mm 1 m/s 758 mmHg 78%
    06:00 +17°C° 0 mm 0 m/s 758 mmHg 81%
    07:00 +21°C° 0 mm 1 m/s 758 mmHg 75%
    08:00 +23°C° 0 mm 1 m/s 758 mmHg 69%
    09:00 +25°C° 0 mm 1 m/s 758 mmHg 63%
    10:00 +26°C° 0 mm 1 m/s 758 mmHg 57%
    11:00 +28°C° 0 mm 1 m/s 758 mmHg 51%
    12:00 +30°C° 0 mm 1 m/s 758 mmHg 45%
    13:00 +30°C° 0 mm 1 m/s 757 mmHg 44%
    14:00 +30°C° 0 mm 1 m/s 757 mmHg 43%
    15:00 +30°C° 0 mm 1 m/s 756 mmHg 42%
    16:00 +28°C° 0 mm 1 m/s 757 mmHg 48%
    17:00 +26°C° 0 mm 1 m/s 757 mmHg 54%
    18:00 +24°C° 0 mm 1 m/s 757 mmHg 60%
    19:00 +24°C° 0 mm 1 m/s 758 mmHg 63%
    20:00 +23°C° 0 mm 1 m/s 758 mmHg 66%
    21:00 +23°C° 0 mm 1 m/s 759 mmHg 69%
    22:00 +22°C° 0 mm 1 m/s 759 mmHg 71%
    23:00 +22°C° 0 mm 1 m/s 759 mmHg 73%

    Amanhã, 25 Novembro, Sábado

    Tempo Temperatura Precipitação Vento Pressão Humidade
    00:00 +21°C° 0 mm 1 m/s 759 mmHg 74%
    01:00 +21°C° 0 mm 1 m/s 759 mmHg 75%
    02:00 +20°C° 0 mm 1 m/s 759 mmHg 76%
    03:00 +20°C° 0 mm 1 m/s 759 mmHg 77%
    04:00 +20°C° 0 mm 1 m/s 759 mmHg 78%
    05:00 +19°C° 0 mm 1 m/s 759 mmHg 79%
    06:00 +19°C° 0 mm 1 m/s 759 mmHg 79%
    07:00 +20°C° 0 mm 1 m/s 760 mmHg 74%
    08:00 +21°C° 0 mm 2 m/s 760 mmHg 68%
    09:00 +24°C° 0 mm 2 m/s 761 mmHg 62%
    10:00 +26°C° 0 mm 2 m/s 760 mmHg 57%
    11:00 +27°C° 0 mm 2 m/s 760 mmHg 51%
    12:00 +29°C° 0 mm 1 m/s 759 mmHg 45%
    13:00 +29°C° 0 mm 1 m/s 759 mmHg 44%
    14:00 +29°C° 0 mm 1 m/s 758 mmHg 42%
    15:00 +28°C° 0 mm 0 m/s 758 mmHg 41%
    16:00 +26°C° 0 mm 0 m/s 758 mmHg 46%
    17:00 +26°C° 0 mm 1 m/s 758 mmHg 51%
    18:00 +24°C° 0 mm 1 m/s 759 mmHg 56%
    19:00 +23°C° 0 mm 1 m/s 759 mmHg 58%
    20:00 +22°C° 0 mm 1 m/s 760 mmHg 60%
    21:00 +22°C° 0 mm 1 m/s 760 mmHg 62%
    22:00 +21°C° 0 mm 1 m/s 760 mmHg 64%
    23:00 +21°C° 0 mm 1 m/s 760 mmHg 67%

    Depois de amanhã, 26 Novembro, Domingo

    Tempo Temperatura Precipitação Vento Pressão Humidade
    00:00 +20°C° 0 mm 1 m/s 760 mmHg 70%
    01:00 +19°C° 0 mm 1 m/s 760 mmHg 71%
    02:00 +19°C° 0 mm 1 m/s 760 mmHg 73%
    03:00 +18°C° 0 mm 1 m/s 760 mmHg 75%
    04:00 +18°C° 0 mm 1 m/s 760 mmHg 77%
    05:00 +18°C° 0 mm 1 m/s 760 mmHg 78%
    06:00 +16°C° 0 mm 1 m/s 760 mmHg 79%
    07:00 +19°C° 0 mm 1 m/s 761 mmHg 73%
    08:00 +21°C° 0 mm 1 m/s 761 mmHg 67%
    09:00 +23°C° 0 mm 1 m/s 761 mmHg 61%
    10:00 +25°C° 0 mm 1 m/s 761 mmHg 55%
    11:00 +27°C° 0 mm 1 m/s 760 mmHg 49%
    12:00 +28°C° 0 mm 1 m/s 759 mmHg 42%
    13:00 +29°C° 0 mm 1 m/s 758 mmHg 41%
    14:00 +29°C° 0 mm 1 m/s 758 mmHg 41%
    15:00 +27°C° 0 mm 0 m/s 757 mmHg 40%
    16:00 +25°C° 0 mm 0 m/s 757 mmHg 45%
    17:00 +23°C° 0 mm 0 m/s 757 mmHg 50%
    18:00 +21°C° 0 mm 0 m/s 758 mmHg 55%
    19:00 +22°C° 0 mm 1 m/s 758 mmHg 57%
    20:00 +22°C° 0 mm 1 m/s 759 mmHg 58%
    21:00 +21°C° 0 mm 1 m/s 759 mmHg 60%
    22:00 +21°C° 0 mm 1 m/s 759 mmHg 62%
    23:00 +20°C° 0 mm 1 m/s 759 mmHg 64%

    27 Novembro, Segunda-feira

    Tempo Temperatura Precipitação Vento Pressão Humidade
    00:00 +20°C° 0 mm 1 m/s 759 mmHg 66%
    01:00 +19°C° 0 mm 1 m/s 759 mmHg 68%
    02:00 +19°C° 0 mm 1 m/s 759 mmHg 70%
    03:00 +18°C° 0 mm 1 m/s 759 mmHg 72%
    04:00 +18°C° 0 mm 1 m/s 759 mmHg 74%
    05:00 +18°C° 0 mm 1 m/s 759 mmHg 76%
    06:00 +16°C° 0 mm 1 m/s 759 mmHg 78%
    07:00 +19°C° 0 mm 1 m/s 759 mmHg 73%
    08:00 +21°C° 0 mm 1 m/s 760 mmHg 68%
    09:00 +23°C° 0 mm 2 m/s 760 mmHg 63%
    10:00 +25°C° 0 mm 1 m/s 759 mmHg 57%
    11:00 +26°C° 0 mm 1 m/s 759 mmHg 51%
    12:00 +28°C° 0 mm 1 m/s 758 mmHg 44%
    13:00 +28°C° 0 mm 1 m/s 757 mmHg 44%
    14:00 +28°C° 0 mm 1 m/s 757 mmHg 43%
    15:00 +28°C° 0 mm 1 m/s 756 mmHg 42%
    16:00 +26°C° 0 mm 1 m/s 756 mmHg 47%
    17:00 +24°C° 0 mm 1 m/s 756 mmHg 52%
    18:00 +23°C° 0 mm 1 m/s 757 mmHg 57%
    19:00 +22°C° 0 mm 1 m/s 757 mmHg 59%
    20:00 +21°C° 0 mm 1 m/s 758 mmHg 61%
    21:00 +21°C° 0 mm 1 m/s 758 mmHg 63%
    22:00 +20°C° 0 mm 1 m/s 758 mmHg 65%
    23:00 +20°C° 0 mm 1 m/s 758 mmHg 66%

    28 Novembro, Terça-feira

    Tempo Temperatura Precipitação Vento Pressão Humidade
    00:00 +19°C° 0 mm 1 m/s 758 mmHg 68%
    01:00 +19°C° 0 mm 1 m/s 757 mmHg 69%
    02:00 +18°C° 0 mm 1 m/s 757 mmHg 71%
    03:00 +18°C° 0 mm 1 m/s 757 mmHg 72%
    04:00 +16°C° 0 mm 1 m/s 757 mmHg 74%
    05:00 +16°C° 0 mm 1 m/s 758 mmHg 75%
    06:00 +16°C° 0 mm 1 m/s 758 mmHg 76%
    07:00 +19°C° 0 mm 1 m/s 759 mmHg 71%
    08:00 +21°C° 0 mm 1 m/s 759 mmHg 65%
    09:00 +22°C° 0 mm 1 m/s 760 mmHg 60%
    10:00 +24°C° 0 mm 1 m/s 759 mmHg 54%
    11:00 +26°C° 0 mm 1 m/s 759 mmHg 49%
    12:00 +27°C° 0 mm 1 m/s 758 mmHg 43%
    13:00 +28°C° 0 mm 1 m/s 758 mmHg 42%
    14:00 +28°C° 0 mm 1 m/s 757 mmHg 41%
    15:00 +28°C° 0 mm 1 m/s 757 mmHg 40%
    16:00 +26°C° 0 mm 1 m/s 757 mmHg 45%
    17:00 +24°C° 0 mm 1 m/s 758 mmHg 50%
    18:00 +22°C° 0 mm 1 m/s 758 mmHg 55%
    19:00 +21°C° 0 mm 1 m/s 758 mmHg 57%
    20:00 +21°C° 0 mm 1 m/s 759 mmHg 59%
    21:00 +20°C° 0 mm 1 m/s 760 mmHg 61%
    22:00 +20°C° 0 mm 1 m/s 759 mmHg 63%
    23:00 +19°C° 0 mm 1 m/s 759 mmHg 65%

    29 Novembro, Quarta-feira

    Tempo Temperatura Precipitação Vento Pressão Humidade
    00:00 +18°C° 0 mm 1 m/s 759 mmHg 67%
    01:00 +18°C° 0 mm 1 m/s 759 mmHg 68%
    02:00 +18°C° 0 mm 1 m/s 759 mmHg 70%
    03:00 +16°C° 0 mm 1 m/s 759 mmHg 71%
    04:00 +16°C° 0 mm 1 m/s 759 mmHg 72%
    05:00 +15°C° 0 mm 1 m/s 760 mmHg 72%
    06:00 +15°C° 0 mm 1 m/s 760 mmHg 73%
    07:00 +18°C° 0 mm 1 m/s 760 mmHg 68%
    08:00 +19°C° 0 mm 2 m/s 761 mmHg 63%
    09:00 +21°C° 0 mm 2 m/s 761 mmHg 58%
    10:00 +23°C° 0 mm 2 m/s 760 mmHg 53%
    11:00 +25°C° 0 mm 1 m/s 760 mmHg 48%
    12:00 +27°C° 0 mm 1 m/s 759 mmHg 43%
    13:00 +27°C° 0 mm 1 m/s 759 mmHg 41%
    14:00 +27°C° 0 mm 1 m/s 758 mmHg 40%
    15:00 +28°C° 0 mm 1 m/s 758 mmHg 39%
    16:00 +26°C° 0 mm 1 m/s 758 mmHg 44%
    17:00 +24°C° 0 mm 1 m/s 758 mmHg 50%
    18:00 +19°C° 0 mm 0 m/s 758 mmHg 55%
    19:00 +19°C° 0 mm 0 m/s 758 mmHg 57%
    20:00 +18°C° 0 mm 0 m/s 759 mmHg 60%
    21:00 +20°C° 0 mm 1 m/s 759 mmHg 62%
    22:00 +19°C° 0 mm 1 m/s 759 mmHg 64%
    23:00 +19°C° 0 mm 1 m/s 759 mmHg 67%
    Mostrar mais